| time (UTC) | temp F | wind direction | speed knots | gust knots | rain 1hr in | rain 24hr in | rain mn in | humidity % | barometer mb |
| 20260504081505 | 72 | 0 | 0.0 | 0.0 | 0.00 | 0.00 | 0.00 | 43 | 996.9 |
| 20260504081005 | 72 | 0 | 0.0 | 0.0 | 0.00 | 0.00 | 0.00 | 43 | 997.1 |
| 20260504080505 | 72 | 0 | 0.0 | 0.0 | 0.00 | 0.00 | 0.00 | 43 | 996.9 |
| 20260504050505 | 77 | 298 | 1.7 | 13.0 | 0.00 | 0.00 | 0.00 | 35 | 997.6 |
| 20260504050005 | 77 | 296 | 1.7 | 10.4 | 0.00 | 0.00 | 0.00 | 35 | 997.6 |
| 20260504045505 | 77 | 292 | 0.9 | 6.1 | 0.00 | 0.00 | 0.00 | 35 | 997.7 |
| 20260504044505 | 77 | 295 | 0.9 | 7.8 | 0.00 | 0.00 | 0.00 | 36 | 997.4 |
| 20260504044005 | 77 | 302 | 0.9 | 7.8 | 0.00 | 0.00 | 0.00 | 35 | 997.3 |
| 20260504043505 | 77 | 290 | 0.9 | 8.7 | 0.00 | 0.00 | 0.00 | 36 | 997.5 |
| 20260504043007 | 77 | 287 | 0.9 | 8.7 | 0.00 | 0.00 | 0.00 | 37 | 997.6 |
| 20260504042506 | 78 | 293 | 0.9 | 7.8 | 0.00 | 0.00 | 0.00 | 38 | 997.7 |
| 20260504042005 | 78 | 286 | 0.9 | 8.7 | 0.00 | 0.00 | 0.00 | 37 | 997.4 |
| 20260504041505 | 78 | 284 | 0.9 | 8.7 | 0.00 | 0.00 | 0.00 | 37 | 997.2 |
| 20260504041005 | 78 | 310 | 2.6 | 15.6 | 0.00 | 0.00 | 0.00 | 36 | 997.2 |
| 20260504040005 | 78 | 294 | 2.6 | 12.2 | 0.00 | 0.00 | 0.00 | 35 | 997.2 |
| 20260504035505 | 78 | 292 | 2.6 | 14.8 | 0.00 | 0.00 | 0.00 | 35 | 997.2 |
| 20260504035006 | 78 | 295 | 2.6 | 14.8 | 0.00 | 0.00 | 0.00 | 34 | 997.1 |
| 20260504034506 | 78 | 296 | 2.6 | 13.9 | 0.00 | 0.00 | 0.00 | 35 | 997.1 |
| 20260504034006 | 79 | 301 | 4.3 | 13.9 | 0.00 | 0.00 | 0.00 | 34 | 997.1 |
| 20260504033506 | 79 | 308 | 2.6 | 14.8 | 0.00 | 0.00 | 0.00 | 32 | 996.8 |
| 20260504033006 | 79 | 314 | 1.7 | 14.8 | 0.00 | 0.00 | 0.00 | 34 | 996.7 |
| 20260504032505 | 79 | 311 | 1.7 | 12.2 | 0.00 | 0.00 | 0.00 | 35 | 996.6 |
| 20260504032005 | 79 | 300 | 2.6 | 12.2 | 0.00 | 0.00 | 0.00 | 35 | 996.5 |
| 20260504031006 | 79 | 302 | 2.6 | 11.3 | 0.00 | 0.00 | 0.00 | 35 | 996.3 |
| 20260504030506 | 79 | 297 | 4.3 | 16.5 | 0.00 | 0.00 | 0.00 | 35 | 996.2 |
| 20260504030006 | 79 | 297 | 4.3 | 16.5 | 0.00 | 0.00 | 0.00 | 34 | 996.1 |
| 20260504025505 | 79 | 307 | 4.3 | 18.2 | 0.00 | 0.00 | 0.00 | 35 | 996.1 |
| 20260504024505 | 79 | 303 | 4.3 | 15.6 | 0.00 | 0.00 | 0.00 | 35 | 996.0 |
| 20260504024005 | 80 | 310 | 4.3 | 15.6 | 0.00 | 0.00 | 0.00 | 35 | 995.8 |
| 20260504023505 | 80 | 304 | 5.2 | 16.5 | 0.00 | 0.00 | 0.00 | 35 | 995.7 |
| 20260504023005 | 80 | 296 | 4.3 | 16.5 | 0.00 | 0.00 | 0.00 | 34 | 995.6 |
| 20260504022505 | 80 | 302 | 3.5 | 15.6 | 0.00 | 0.00 | 0.00 | 33 | 995.5 |
| 20260504021506 | 80 | 297 | 4.3 | 17.4 | 0.00 | 0.00 | 0.00 | 35 | 995.6 |
| 20260504021006 | 80 | 301 | 3.5 | 12.2 | 0.00 | 0.00 | 0.00 | 36 | 995.6 |
| 20260504020005 | 80 | 311 | 3.5 | 17.4 | 0.00 | 0.00 | 0.00 | 33 | 995.5 |
| 20260504015505 | 80 | 296 | 3.5 | 15.6 | 0.00 | 0.00 | 0.00 | 34 | 995.4 |
| 20260504013505 | 80 | 285 | 6.1 | 17.4 | 0.00 | 0.00 | 0.00 | 34 | 995.2 |
| 20260504013005 | 81 | 294 | 6.1 | 17.4 | 0.00 | 0.00 | 0.00 | 35 | 995.4 |
| 20260504012506 | 81 | 303 | 5.2 | 17.4 | 0.00 | 0.00 | 0.00 | 35 | 995.2 |
| 20260504011005 | 81 | 301 | 6.1 | 18.2 | 0.00 | 0.00 | 0.00 | 35 | 995.1 |
| 20260504010005 | 82 | 304 | 2.6 | 16.5 | 0.00 | 0.00 | 0.00 | 35 | 994.8 |
| 20260504004505 | 82 | 315 | 4.3 | 16.5 | 0.00 | 0.00 | 0.00 | 35 | 995.0 |
| 20260504004005 | 82 | 314 | 4.3 | 19.1 | 0.00 | 0.00 | 0.00 | 34 | 995.0 |
| 20260504003006 | 82 | 301 | 4.3 | 17.4 | 0.00 | 0.00 | 0.00 | 38 | 995.1 |
| 20260504002006 | 83 | 298 | 6.1 | 18.2 | 0.00 | 0.00 | 0.00 | 36 | 995.0 |
| 20260504001505 | 83 | 302 | 5.2 | 17.4 | 0.00 | 0.00 | 0.00 | 35 | 994.6 |
| 20260504001005 | 84 | 298 | 4.3 | 16.5 | 0.00 | 0.00 | 0.00 | 33 | 994.5 |
| 20260504000505 | 84 | 297 | 3.5 | 14.8 | 0.00 | 0.00 | 0.00 | 32 | 994.3 |
| 20260504000005 | 84 | 300 | 3.5 | 15.6 | 0.00 | 0.00 | 0.00 | 31 | 994.4 |
| 20260503235505 | 84 | 304 | 5.2 | 17.4 | 0.00 | 0.00 | 0.00 | 31 | 994.6 |
| 20260503235005 | 84 | 309 | 6.1 | 17.4 | 0.00 | 0.00 | 0.00 | 31 | 994.5 |
| 20260503234505 | 84 | 305 | 6.1 | 16.5 | 0.00 | 0.00 | 0.00 | 30 | 994.5 |
| 20260503234005 | 84 | 307 | 6.1 | 15.6 | 0.00 | 0.00 | 0.00 | 30 | 994.5 |
| 20260503233505 | 84 | 308 | 7.0 | 17.4 | 0.00 | 0.00 | 0.00 | 29 | 994.4 |
| 20260503233005 | 84 | 304 | 7.0 | 17.4 | 0.00 | 0.00 | 0.00 | 29 | 994.5 |
| 20260503232006 | 85 | 309 | 5.2 | 16.5 | 0.00 | 0.00 | 0.00 | 28 | 994.7 |
| 20260503231005 | 85 | 301 | 6.1 | 17.4 | 0.00 | 0.00 | 0.00 | 28 | 995.0 |
| 20260503230505 | 86 | 309 | 6.1 | 17.4 | 0.00 | 0.00 | 0.00 | 27 | 995.0 |
| 20260503230006 | 87 | 299 | 6.1 | 18.2 | 0.00 | 0.00 | 0.00 | 26 | 995.1 |
| 20260503225505 | 87 | 295 | 6.1 | 18.2 | 0.00 | 0.00 | 0.00 | 23 | 995.1 |
| 20260503225005 | 87 | 299 | 7.0 | 20.0 | 0.00 | 0.00 | 0.00 | 23 | 995.1 |
| 20260503224505 | 88 | 292 | 6.1 | 20.0 | 0.00 | 0.00 | 0.00 | 22 | 995.1 |
| 20260503224005 | 88 | 297 | 4.3 | 16.5 | 0.00 | 0.00 | 0.00 | 20 | 995.0 |
| 20260503223505 | 88 | 301 | 3.5 | 12.2 | 0.00 | 0.00 | 0.00 | 19 | 994.9 |
| 20260503223005 | 88 | 294 | 3.5 | 13.9 | 0.00 | 0.00 | 0.00 | 19 | 994.6 |
| 20260503221505 | 89 | 299 | 3.5 | 13.0 | 0.00 | 0.00 | 0.00 | 16 | 995.0 |
| 20260503221005 | 90 | 282 | 2.6 | 12.2 | 0.00 | 0.00 | 0.00 | 15 | 995.0 |
| 20260503220505 | 90 | 279 | 2.6 | 13.9 | 0.00 | 0.00 | 0.00 | 13 | 995.1 |
| 20260503220005 | 90 | 273 | 2.6 | 13.9 | 0.00 | 0.00 | 0.00 | 13 | 995.1 |
| 20260503215505 | 90 | 251 | 3.5 | 10.4 | 0.00 | 0.00 | 0.00 | 13 | 995.5 |
| 20260503215006 | 90 | 270 | 3.5 | 10.4 | 0.00 | 0.00 | 0.00 | 12 | 995.6 |
| 20260503214505 | 91 | 290 | 3.5 | 13.0 | 0.00 | 0.00 | 0.00 | 12 | 995.6 |
| 20260503214005 | 91 | 279 | 3.5 | 13.0 | 0.00 | 0.00 | 0.00 | 12 | 995.6 |
| 20260503213505 | 91 | 281 | 2.6 | 13.0 | 0.00 | 0.00 | 0.00 | 12 | 995.6 |
| 20260503213006 | 91 | 233 | 3.5 | 13.0 | 0.00 | 0.00 | 0.00 | 12 | 995.6 |
| 20260503212505 | 91 | 224 | 2.6 | 13.0 | 0.00 | 0.00 | 0.00 | 12 | 995.6 |
| 20260503211505 | 91 | 285 | 2.6 | 12.2 | 0.00 | 0.00 | 0.00 | 12 | 995.7 |
| 20260503211005 | 90 | 251 | 6.1 | 17.4 | 0.00 | 0.00 | 0.00 | 12 | 995.8 |
| 20260503210505 | 91 | 230 | 5.2 | 18.2 | 0.00 | 0.00 | 0.00 | 12 | 995.7 |
| 20260503210006 | 91 | 228 | 4.3 | 18.2 | 0.00 | 0.00 | 0.00 | 12 | 995.8 |
| 20260503205505 | 91 | 213 | 7.0 | 16.5 | 0.00 | 0.00 | 0.00 | 12 | 995.8 |
| 20260503205005 | 91 | 210 | 7.0 | 20.0 | 0.00 | 0.00 | 0.00 | 13 | 995.7 |
| 20260503204506 | 91 | 222 | 6.1 | 20.0 | 0.00 | 0.00 | 0.00 | 11 | 995.6 |
| 20260503204004 | 91 | 214 | 6.1 | 18.2 | 0.00 | 0.00 | 0.00 | 11 | 995.6 |
| 20260503203505 | 91 | 216 | 5.2 | 18.2 | 0.00 | 0.00 | 0.00 | 12 | 995.6 |
| 20260503203005 | 91 | 248 | 3.5 | 14.8 | 0.00 | 0.00 | 0.00 | 12 | 995.5 |
| 20260503202505 | 91 | 237 | 4.3 | 9.6 | 0.00 | 0.00 | 0.00 | 14 | 995.4 |
| 20260503202006 | 91 | 227 | 4.3 | 13.0 | 0.00 | 0.00 | 0.00 | 13 | 995.5 |
| 20260503201005 | 91 | 255 | 3.5 | 13.0 | 0.00 | 0.00 | 0.00 | 13 | 995.8 |
| 20260503200505 | 91 | 244 | 3.5 | 13.0 | 0.00 | 0.00 | 0.00 | 13 | 996.0 |
| 20260503200005 | 90 | 229 | 5.2 | 16.5 | 0.00 | 0.00 | 0.00 | 14 | 996.1 |
| 20260503195505 | 91 | 225 | 7.0 | 17.4 | 0.00 | 0.00 | 0.00 | 13 | 996.0 |
| 20260503195005 | 91 | 221 | 7.0 | 17.4 | 0.00 | 0.00 | 0.00 | 14 | 996.0 |
| 20260503194505 | 91 | 217 | 7.0 | 24.3 | 0.00 | 0.00 | 0.00 | 14 | 996.1 |
| 20260503194006 | 91 | 206 | 4.3 | 24.3 | 0.00 | 0.00 | 0.00 | 14 | 996.1 |
| 20260503193505 | 91 | 190 | 4.3 | 15.6 | 0.00 | 0.00 | 0.00 | 13 | 996.1 |
| 20260503193005 | 91 | 219 | 4.3 | 10.4 | 0.00 | 0.00 | 0.00 | 14 | 996.1 |
| 20260503192505 | 90 | 237 | 4.3 | 10.4 | 0.00 | 0.00 | 0.00 | 14 | 996.1 |
| 20260503192005 | 90 | 215 | 4.3 | 10.4 | 0.00 | 0.00 | 0.00 | 14 | 996.4 |
| 20260503191006 | 90 | 218 | 5.2 | 16.5 | 0.00 | 0.00 | 0.00 | 14 | 996.6 |
| 20260503190504 | 89 | 210 | 4.3 | 16.5 | 0.00 | 0.00 | 0.00 | 13 | 996.6 |
| 20260503190004 | 90 | 202 | 2.6 | 12.2 | 0.00 | 0.00 | 0.00 | 13 | 996.6 |
| 20260503185506 | 89 | 193 | 2.6 | 7.8 | 0.00 | 0.00 | 0.00 | 13 | 996.6 |
| 20260503185005 | 89 | 181 | 2.6 | 13.0 | 0.00 | 0.00 | 0.00 | 14 | 996.7 |
| 20260503184505 | 88 | 188 | 2.6 | 13.0 | 0.00 | 0.00 | 0.00 | 14 | 997.1 |
| 20260503184005 | 88 | 191 | 1.7 | 11.3 | 0.00 | 0.00 | 0.00 | 14 | 997.1 |
| 20260503183505 | 88 | 211 | 1.7 | 11.3 | 0.00 | 0.00 | 0.00 | 15 | 997.2 |
| 20260503182505 | 87 | 167 | 1.7 | 7.8 | 0.00 | 0.00 | 0.00 | 15 | 997.3 |
| 20260503181506 | 88 | 200 | 1.7 | 7.8 | 0.00 | 0.00 | 0.00 | 15 | 997.4 |
| 20260503181005 | 88 | 196 | 1.7 | 8.7 | 0.00 | 0.00 | 0.00 | 15 | 997.6 |
| 20260503180505 | 87 | 207 | 3.5 | 12.2 | 0.00 | 0.00 | 0.00 | 14 | 997.7 |
| 20260503175504 | 87 | 170 | 1.7 | 9.6 | 0.00 | 0.00 | 0.00 | 15 | 997.7 |
| 20260503175004 | 87 | 160 | 0.9 | 6.1 | 0.00 | 0.00 | 0.00 | 16 | 997.6 |
| 20260503174505 | 87 | 167 | 0.9 | 6.1 | 0.00 | 0.00 | 0.00 | 17 | 997.5 |
| 20260503173505 | 86 | 224 | 0.9 | 6.1 | 0.00 | 0.00 | 0.00 | 17 | 997.7 |
| 20260503173005 | 86 | 236 | 1.7 | 10.4 | 0.00 | 0.00 | 0.00 | 17 | 997.7 |
| 20260503172505 | 85 | 230 | 1.7 | 10.4 | 0.00 | 0.00 | 0.00 | 17 | 997.7 |
| 20260503171505 | 84 | 219 | 0.9 | 7.0 | 0.00 | 0.00 | 0.00 | 19 | 997.7 |
| 20260503171004 | 84 | 207 | 0.9 | 7.0 | 0.00 | 0.00 | 0.00 | 19 | 997.7 |
| 20260503170504 | 84 | 172 | 1.7 | 5.2 | 0.00 | 0.00 | 0.00 | 21 | 997.7 |
| 20260503151005 | 75 | 347 | 0.0 | 0.9 | 0.00 | 0.00 | 0.00 | 28 | 997.6 |
| 20260503150505 | 75 | 347 | 0.0 | 0.9 | 0.00 | 0.00 | 0.00 | 30 | 997.3 |
| 20260503131005 | 69 | 218 | 0.0 | 1.7 | 0.00 | 0.00 | 0.00 | 38 | 996.1 |
| 20260503130505 | 69 | 220 | 0.0 | 1.7 | 0.00 | 0.00 | 0.00 | 38 | 996.0 |